Location: Nitra
(0.0000°N, 18.0833°E)
Time: 13:47:27
(UTC+02:00)

Tiros 1 despin weight - All Passes

Search period start: 26 March 2023 00:00
Search period end: 05 April 2023 01:00
Orbit: 588 x 634 km, 48.2° (Epoch: 26 March)

Date Brightness Start Highest point End Pass type
(mag) Time Alt. Az. Time Alt. Az. Time Alt. Az.
26 Mar - 05:59:58 10° NNW 06:04:31 70° NE 06:09:08 10° SE visible
26 Mar - 18:07:22 10° SW 18:11:46 71° NW 18:16:06 10° NNE daylight
27 Mar - 04:35:03 10° NNE 04:37:26 14° NE 04:39:49 10° E visible
27 Mar - 06:14:18 10° WNW 06:18:41 44° SW 06:23:07 10° SSE visible
27 Mar - 16:41:22 10° S 16:44:42 21° SE 16:48:00 10° E daylight
27 Mar - 18:22:13 10° WSW 18:25:55 26° NW 18:29:34 10° N daylight
28 Mar - 04:47:29 10° NNW 04:51:37 34° NE 04:55:48 10° ESE visible
28 Mar - 06:29:44 10° W 06:32:52 18° SW 06:36:03 10° S visible
28 Mar - 16:54:32 10° SSW 16:58:53 54° SE 17:03:09 10° NE daylight
28 Mar - 18:39:34 10° WNW 18:40:07 10° NW 18:40:40 10° NW daylight
29 Mar - 05:01:11 10° NW 05:05:45 90° NNE 05:10:23 10° SE visible
29 Mar - 15:30:48 10° SE 15:31:43 11° SE 15:32:37 10° ESE daylight
29 Mar - 17:08:41 10° SW 17:13:00 54° NW 17:17:17 10° NNE daylight
30 Mar - 03:35:37 10° N 03:38:39 18° NE 03:41:43 10° E visible
30 Mar - 05:15:44 10° WNW 05:19:53 34° SW 05:24:06 10° SSE visible
30 Mar - 15:42:10 10° S 15:45:56 26° SE 15:49:39 10° ENE daylight
30 Mar - 17:23:49 10° W 17:27:08 21° NW 17:30:25 10° N daylight
31 Mar - 03:48:29 10° NNW 03:52:48 43° NE 03:57:10 10° ESE visible
31 Mar - 05:31:38 10° W 05:34:04 14° SW 05:36:32 10° SSW visible
31 Mar - 15:55:38 10° SSW 16:00:05 72° SE 16:04:27 10° NE daylight
01 Apr - 04:02:22 10° NW 04:06:54 70° SW 04:11:29 10° SSE night (unlit)
01 Apr - 14:30:36 10° SSE 14:32:54 14° SE 14:35:12 10° E daylight
01 Apr - 16:09:58 10° WSW 16:14:10 41° NW 16:18:18 10° NNE daylight
02 Apr - 02:36:17 10° N 02:39:47 22° NE 02:43:20 10° ESE night (unlit)
02 Apr - 04:17:10 10° WNW 04:21:01 27° SW 04:24:55 10° S night (unlit)
02 Apr - 14:43:00 10° SSW 14:47:05 34° SE 14:51:05 10° ENE daylight
02 Apr - 16:25:29 10° W 16:28:17 16° NW 16:31:03 10° N daylight
03 Apr - 02:49:28 10° NNW 02:53:53 56° NE 02:58:23 10° SE night (unlit)
03 Apr - 04:33:58 10° WSW 04:35:12 11° SW 04:36:26 10° SSW night (unlit)
03 Apr - 14:56:40 10° SW 15:01:10 88° NW 15:05:35 10° NE daylight
04 Apr - 01:25:25 10° NNE 01:26:43 11° NE 01:28:01 10° ENE night (unlit)
04 Apr - 03:03:33 10° NW 03:07:57 54° SW 03:12:26 10° SSE night (unlit)
04 Apr - 13:30:57 10° S 13:34:00 18° SE 13:37:00 10° E daylight
04 Apr - 15:11:14 10° WSW 15:15:14 32° NW 15:19:11 10° NNE daylight
